Weather History for RPLB - January, 2014

Change the Weather History Date:

Tuesday, January 14, 2014

  Actual Average Record
Temperature  
Mean Temperature 79 °F -  
Max Temperature 87 °F 86 °F 91 °F (2000)
Min Temperature 71 °F 71 °F 70 °F (2015)
Cooling Degree Days 14    
Growing Degree Days 29 (Base 50)    
Moisture  
Dew Point 68 °F    
Average Humidity 69    
Maximum Humidity 88    
Minimum Humidity 48    
Precipitation  
Precipitation 0.00 in - - ()
Sea Level Pressure  
Sea Level Pressure 29.81 in    
Wind  
Wind Speed 5 mph ()    
Max Wind Speed 9 mph    
Max Gust Speed -    
Visibility 7.6 miles    
Events      
Averages and records for this station are not official NWS values.
T = Trace of Precipitation, MM = Missing Value Source: Averaged Metar Reports

Daily Weather History Graph

Daily Weather History Graph

Search for Another Location

Airport or City:

Trip Planner

Search our weather history database for the weather conditions in past years. The results will help you decide how hot, cold, wet, or windy it might be!

Date:

Astronomy

Jan. 14, 2014 Rise Set
Actual Time 6:27 AM PHT 5:48 PM PHT
Civil Twilight 6:04 AM PHT 6:10 PM PHT
Nautical Twilight 5:38 AM PHT 6:37 PM PHT
Astronomical Twilight 5:12 AM PHT 7:03 PM PHT
Moon 4:20 PM PHT (1/14) 4:39 AM PHT (1/14)
Length of Visible Light 12h 06m
Length of Day
11h 20m
Waxing Gibbous, 96% of the Moon is Illuminated
Jan 14
Waxing Gibbous
Jan 16
Full
Jan 24
Last Quarter
Jan 31
New
Feb 7
First Quarter

Hourly Weather History & Observations

Time (PHT) Temp. Heat Index Dew Point Humidity Pressure Visibility Wind Dir Wind Speed Gust Speed Precip Events Conditions
12:00 AM 75.2 °F - 68.0 °F 78% 29.83 in 6.2 mi ENE 5.8 mph - N/A   Scattered Clouds
2:00 AM 75 °F - 69 °F 75% 29.80 in 11 mi ENE 8.9 mph - -   Haze
2:00 AM 75.2 °F - 68.0 °F 78% 29.80 in 6.2 mi ENE 8.1 mph - N/A   Scattered Clouds
5:00 AM 74 °F - 69 °F 81% 29.79 in 11 mi NE 6.7 mph - -   Haze
5:00 AM 73.4 °F - 69.8 °F 88% 29.77 in 6.2 mi NE 5.8 mph - N/A   Scattered Clouds
6:00 AM 73.4 °F - 64.4 °F 73% 29.80 in 6.2 mi ENE 5.8 mph - N/A   Mostly Cloudy
7:00 AM 75.2 °F - 62.6 °F 65% 29.80 in 6.2 mi ENE 5.8 mph - N/A   Mostly Cloudy
8:00 AM 76 °F - 64 °F 59% 29.84 in 12 mi NNE 2.2 mph - -   Haze
8:00 AM 77.0 °F - 64.4 °F 65% 29.83 in 6.2 mi Variable 2.3 mph - N/A   Mostly Cloudy
9:00 AM 78.8 °F - 66.2 °F 65% 29.83 in 6.2 mi Variable 2.3 mph - N/A   Mostly Cloudy
10:00 AM 82.4 °F 84.6 °F 66.2 °F 58% 29.83 in 6.2 mi ENE 9.2 mph - N/A   Mostly Cloudy
11:00 AM 82 °F - 67 °F 50% 29.85 in 12 mi East 8.9 mph - -   Haze
11:00 AM 82.4 °F 84.6 °F 66.2 °F 58% 29.83 in 6.2 mi East 9.2 mph - N/A   Mostly Cloudy
1:00 PM 84.2 °F 87.3 °F 68.0 °F 58% 29.80 in 6.2 mi Variable 2.3 mph - N/A   Mostly Cloudy
2:00 PM 84 °F - 67 °F 48% 29.78 in 12 mi East 6.7 mph - -   Haze
2:00 PM 84.2 °F 87.3 °F 68.0 °F 58% 29.77 in 6.2 mi Variable 3.5 mph - N/A   Mostly Cloudy
3:00 PM 84.2 °F 88.4 °F 69.8 °F 62% 29.77 in 6.2 mi WSW 5.8 mph - N/A   Mostly Cloudy
4:00 PM 86.0 °F 90.4 °F 69.8 °F 58% 29.77 in 6.2 mi Variable 2.3 mph - N/A   Mostly Cloudy
5:00 PM 82.4 °F 87.2 °F 71.6 °F 70% 29.77 in 6.2 mi NNW 8.1 mph - N/A   Mostly Cloudy
6:00 PM 80.6 °F 84.6 °F 71.6 °F 74% 29.80 in 6.2 mi North 8.1 mph - N/A   Mostly Cloudy
7:00 PM 80.6 °F 84.6 °F 71.6 °F 74% 29.80 in 6.2 mi North 5.8 mph - N/A   Mostly Cloudy
8:00 PM 79 °F - 71 °F 69% 29.83 in 11 mi East 4.5 mph - -   Haze
8:00 PM 78.8 °F - 71.6 °F 78% 29.83 in 6.2 mi Variable 3.5 mph - N/A   Mostly Cloudy
9:00 PM 77.0 °F - 69.8 °F 78% 29.83 in 6.2 mi Variable 3.5 mph - N/A   Mostly Cloudy
10:00 PM 77.0 °F - 69.8 °F 78% 29.83 in 6.2 mi NE 2.3 mph - N/A   Mostly Cloudy
11:00 PM 76 °F - 69 °F 74% 29.84 in 11 mi ENE 6.7 mph - -   Haze
11:00 PM 75.2 °F - 69.8 °F 83% 29.83 in 6.2 mi ENE 5.8 mph - N/A   Mostly Cloudy